[[{"header":{"parameterUnit":"m.s-1","parameterCategory":1,"la1":30.2991,"la2":30.254,"lo1":-89.0895,"lo2":-89.0444,"dy":0.0017,"dx":0.0017,"nx":28,"ny":28,"refTime":"2023-10-04T21:00:00:Z","depth":0,"parameterNumber":2,"parameterNumberName":"U-component_of_WINDS"},"data":[0,0,0,0,0,0,0,0,0,0,0,0,0,0,0,0,0,0,0,0,0,0,0,0,0,0,0,0,0,0,0,0,0,0,0,0,0,0,0,0,0,0,0,0,0,0,0,0,0,0,0,0,0,0,0,0,0,0,-4.3149,-4.315,0,-4.325,-4.3251,-4.3252,-4.3237,-4.3236,-4.3234,-4.3232,-4.3334,-4.3338,-4.3342,0,0,0,0,0,0,0,0,0,0,0,0,0,-4.2943,-4.2947,-4.3149,-4.315,-4.3152,-4.325,-4.3251,-4.3252,-4.3238,-4.3236,-4.3234,-4.3232,-4.3332,-4.3337,-4.3343,0,0,0,0,0,0,0,0,0,0,0,0,0,-4.3037,-4.2948,-4.3149,-4.3156,-4.3158,-4.3249,-4.3251,-4.3253,-4.3238,-4.3236,-4.3233,-4.3231,-4.3331,-4.3337,-4.3343,-4.3433,0,0,-4.3363,-4.3366,0,0,0,0,0,0,0,0,-4.3032,-4.3045,-4.3154,-4.3156,-4.3158,-4.3229,-4.3216,-4.3313,-4.3239,-4.3208,-4.3232,-4.3229,-4.3301,-4.3309,-4.3334,-4.3438,-4.3442,-4.3363,-4.3367,-4.337,-4.3372,0,0,0,0,0,0,0,-4.3025,-4.304,-4.3189,-4.3155,-4.3158,-4.3154,-4.3165,-4.3234,-4.3267,-4.321,-4.3209,-4.3222,-4.3301,-4.3328,-4.3336,-4.3444,-4.3363,-4.3369,-4.3373,-4.3375,-4.3627,-4.363,0,0,0,0,0,0,-4.3017,-4.3035,-4.3186,-4.3192,-4.3087,-4.316,-4.3172,-4.3208,-4.3266,-4.3273,-4.3224,-4.322,-4.3318,-4.3329,-4.334,-4.3448,-4.337,-4.3376,-4.338,-4.3624,-4.3628,-4.3631,0,0,0,0,0,0,-4.3013,-4.3031,-4.3182,-4.3113,-4.3132,-4.3166,-4.3207,-4.3212,-4.3238,-4.3276,-4.3282,-4.3244,-4.3316,-4.3331,-4.341,-4.3451,-4.3379,-4.3385,-4.3621,-4.3625,-4.3629,-4.3666,0,0,0,0,0,0,-4.3007,-4.3029,-4.3064,-4.3114,-4.3136,-4.3251,-4.321,-4.3215,-4.3249,-4.3246,-4.3298,-4.3304,-4.3315,-4.3401,-4.3417,-4.3459,-4.339,-4.3617,-4.3623,-4.3628,-4.3661,-4.3671,-4.368,0,0,0,0,0,-4.2999,-4.307,-4.3066,-4.3084,-4.318,-4.3253,-4.3266,-4.3278,-4.3253,-4.3288,-4.3312,-4.3302,-4.3445,-4.3409,-4.3427,-4.3472,-4.3615,-4.3621,-4.3627,-4.3657,-4.3669,-4.3679,0,0,0,0,0,0,-4.3023,-4.3077,-4.3072,-4.3161,-4.3203,-4.3251,-4.3295,-4.3291,-4.334,-4.3335,-4.3348,-4.336,-4.344,-4.3464,-4.3423,-4.3562,-4.3526,-4.3536,-4.3543,-4.3555,-4.3563,-4.3555,-4.3395,0,0,0,0,0,-4.3039,-4.3094,-4.3138,-4.3212,-4.3233,-4.3261,-4.3293,-4.33,-4.3343,-4.336,-4.3391,-4.3433,-4.3487,-4.3523,-4.3575,-4.3666,-4.3676,-4.3705,-4.3715,-4.3722,-4.373,-4.3779,-4.3792,-4.3652,-4.3652,-4.3652,0,0,-4.3071,-4.3107,-4.3141,-4.3218,-4.3251,-4.3307,-4.3276,-4.3337,-4.3379,-4.3369,-4.3446,-4.347,-4.3518,-4.3604,-4.3643,-4.3626,-4.3771,-4.373,-4.3736,-4.374,-4.3787,-4.38,-4.3812,-4.3656,-4.3655,-4.3655,0,0,-4.3159,-4.3193,-4.3258,-4.3292,-4.3342,-4.336,-4.3376,-4.3425,-4.3441,-4.3518,-4.3512,-4.3563,-4.3656,-4.369,-4.372,-4.3822,-4.3814,-4.3839,-4.3885,-4.3933,-4.3944,-4.3954,-4.3989,-4.4002,-4.3847,-4.3847,-4.3847,0,-4.3192,-4.3278,-4.3292,-4.3354,-4.3387,-4.3383,-4.3448,-4.3481,-4.3545,-4.3568,-4.3549,-4.3666,-4.3698,-4.3791,-4.3816,-4.3841,-4.3859,-4.3832,-4.3942,-4.3952,-4.3961,-4.3995,-4.4008,-4.385,-4.385,-4.3849,-4.3849,0,-4.3316,-4.3376,-4.3422,-4.3485,-4.3524,-4.3588,-4.3611,-4.3649,-4.3653,-4.3673,-4.3752,-4.379,-4.385,-4.3873,-4.3877,-4.3967,-4.3955,-4.3939,-4.3903,-4.3977,-4.4009,-4.4022,-4.3854,-4.3853,-4.3852,-4.3851,0,0,-4.342,-4.3491,-4.3507,-4.3536,-4.3592,-4.3638,-4.3701,-4.376,-4.3792,-4.3838,-4.389,-4.397,-4.3956,-4.399,-4.3998,-4.404,-4.4117,-4.4019,-4.402,-4.4034,-4.4217,-4.4228,-4.4242,-4.4113,-4.4116,-4.4118,-4.4213,0,-4.3512,-4.3624,-4.3639,-4.3738,-4.3792,-4.379,-4.3845,-4.3885,-4.3906,-4.3955,-4.3978,-4.4034,-4.4011,-4.4031,-4.4073,-4.4099,-4.4154,-4.4092,-4.4161,-4.4163,-4.4147,-4.4259,-4.427,-4.4358,-4.4225,-4.4228,-4.4229,0,-4.3633,-4.3682,-4.3787,-4.3836,-4.3859,-4.3909,-4.3964,-4.4011,-4.4057,-4.4069,-4.4107,-4.411,-4.4175,-4.4139,-4.4228,-4.4186,-4.4216,-4.4233,-4.4236,-4.4241,-4.4199,-4.4266,-4.4387,-4.4399,-4.4249,-4.4247,-4.4246,0,-4.3696,-4.3789,-4.3863,-4.3888,-4.3947,-4.3982,-4.4008,-4.4051,-4.4086,-4.4134,-4.4156,-4.4212,-4.4242,-4.4285,-4.4302,-4.4274,-4.4391,-4.4356,-4.4402,-4.4401,-4.4425,-4.4422,-4.455,-4.4447,-4.4447,-4.4446,-4.4446,0,-4.3796,-4.386,-4.3892,-4.3938,-4.4009,-4.4026,-4.4096,-4.4121,-4.416,-4.421,-4.4212,-4.4258,-4.428,-4.433,-4.4344,-4.4416,-4.443,-4.4441,-4.4444,-4.444,-4.4438,-4.4457,-4.4451,-4.445,-4.4449,-4.4449,-4.4448,0,-4.3878,-4.3902,-4.3983,-4.4033,-4.4047,-4.4097,-4.4139,-4.4183,-4.4204,-4.4267,-4.4283,-4.4316,-4.4375,-4.4398,-4.447,-4.448,-4.4562,-4.4561,-4.4546,-4.4547,-4.4591,-4.4586,-4.4734,-4.4754,-4.4639,-4.464,-4.4641,0,-4.3939,-4.3988,-4.4043,-4.4077,-4.4104,-4.4159,-4.4194,-4.4213,-4.425,-4.4306,-4.4343,-4.4402,-4.445,-4.4545,-4.4575,-4.463,-4.4629,-4.4678,-4.4637,-4.4632,-4.4628,-4.4624,-4.4629,-4.4684,-4.4685,-4.4686,-4.4687,0,-4.4045,-4.4055,-4.4106,-4.4162,-4.4204,-4.4248,-4.4292,-4.4319,-4.4345,-4.4386,-4.4447,-4.4484,-4.4558,-4.4617,-4.4674,-4.47,-4.4698,-4.47,-4.4713,-4.4709,-4.4698,-4.4703,-4.4565,-4.4696,-4.4695,-4.4694,-4.4694,-4.4693,-4.4118,-4.4161,-4.4206,-4.4263,-4.4298,-4.4338,-4.4382,-4.4409,-4.446,-4.4521,-4.453,-4.4595,-4.4639,-4.4716,-4.4745,-4.4796,-4.4783,-4.4802,-4.4807,-4.4811,-4.4813,-4.4691,-4.4806,-4.4806,-4.4806,-4.4806,-4.4806,0,-4.4222,-4.4251,-4.4304,-4.4364,-4.4409,-4.4404,-4.4452,-4.4489,-4.4546,-4.4588,-4.4636,-4.4706,-4.4763,-4.4798,-4.4855,-4.4889,-4.4889,-4.4903,-4.49,-4.4906,-4.4822,-4.4804,-4.4902,-4.4902,-4.4902,-4.4902,-4.4902,-4.4902,-4.4282,-4.4354,-4.4369,-4.4459,-4.4488,-4.4552,-4.4579,-4.4617,-4.465,-4.4728,-4.4775,-4.4798,-4.4837,-4.4897,-4.4949,-4.4958,-4.4978,-4.4993,-4.5001,-4.4922,-4.4912,-4.4902,-4.4885,-4.4998,-4.4998,-4.5079,-4.508,-4.5081]},{"header":{"parameterUnit":"m.s-1","parameterCategory":1,"la1":30.2991,"la2":30.254,"lo1":-89.0895,"lo2":-89.0444,"dy":0.0017,"dx":0.0017,"nx":28,"ny":28,"refTime":"2023-10-04T21:00:00:Z","depth":0,"parameterNumber":3,"parameterNumberName":"V-component_of_WINDS"},"data":[0,0,0,0,0,0,0,0,0,0,0,0,0,0,0,0,0,0,0,0,0,0,0,0,0,0,0,0,0,0,0,0,0,0,0,0,0,0,0,0,0,0,0,0,0,0,0,0,0,0,0,0,0,0,0,0,0,0,4.4316,4.4316,0,4.4336,4.4336,4.4336,4.4283,4.4281,4.428,4.4278,4.4295,4.4297,4.4299,0,0,0,0,0,0,0,0,0,0,0,0,0,4.4231,4.4233,4.4316,4.4316,4.4317,4.4336,4.4336,4.4336,4.4283,4.4281,4.4279,4.4277,4.4295,4.4297,4.43,0,0,0,0,0,0,0,0,0,0,0,0,0,4.4261,4.4234,4.4316,4.4293,4.4291,4.4335,4.4336,4.4336,4.4284,4.4281,4.4279,4.4277,4.4294,4.4297,4.43,4.4367,0,0,4.4309,4.431,0,0,0,0,0,0,0,0,4.4259,4.4264,4.4296,4.4294,4.4292,4.4304,4.4312,4.4347,4.4284,4.4286,4.4278,4.4275,4.43,4.4303,4.4312,4.4368,4.4369,4.4309,4.4311,4.4312,4.4313,0,0,0,0,0,0,0,4.4257,4.4263,4.4324,4.4296,4.4294,4.428,4.4282,4.4318,4.4307,4.4286,4.4282,4.4285,4.4299,4.4309,4.4312,4.4369,4.4309,4.4312,4.4314,4.4315,4.4483,4.4485,0,0,0,0,0,0,4.4259,4.4262,4.4323,4.4324,4.427,4.4284,4.4286,4.4303,4.4306,4.4304,4.4287,4.4283,4.4305,4.4308,4.4312,4.4391,4.4312,4.4315,4.4317,4.448,4.4483,4.4486,0,0,0,0,0,0,4.4257,4.4265,4.4322,4.4292,4.4298,4.4288,4.4308,4.4305,4.4315,4.4307,4.4305,4.43,4.4303,4.4308,4.4354,4.4391,4.4316,4.4319,4.4477,4.4481,4.4485,4.4551,0,0,0,0,0,0,4.4255,4.4264,4.429,4.4293,4.43,4.4365,4.431,4.4307,4.432,4.4314,4.4318,4.4317,4.4302,4.435,4.4357,4.4394,4.4321,4.4474,4.4479,4.4483,4.4545,4.4557,4.4566,0,0,0,0,0,4.4252,4.4307,4.4292,4.43,4.4333,4.4367,4.4371,4.4353,4.4323,4.4349,4.4345,4.4317,4.4386,4.4355,4.4363,4.4401,4.4471,4.4477,4.4483,4.4541,4.4554,4.4566,0,0,0,0,0,0,4.4308,4.4307,4.429,4.4348,4.4359,4.4358,4.439,4.4369,4.4387,4.438,4.4357,4.4358,4.4409,4.441,4.4375,4.4467,4.4423,4.4431,4.4465,4.4478,4.4488,4.4487,4.4324,0,0,0,0,0,4.4327,4.4357,4.4354,4.4406,4.4412,4.44,4.4415,4.44,4.441,4.4413,4.4412,4.4421,4.4445,4.4462,4.4483,4.4545,4.4546,4.4576,4.4586,4.4595,4.4602,4.4635,4.4648,4.4506,4.4506,4.4506,0,0,4.4367,4.437,4.439,4.4417,4.4423,4.4453,4.4404,4.4438,4.446,4.4418,4.4462,4.4462,4.4471,4.4526,4.455,4.4528,4.4641,4.4602,4.4609,4.4611,4.4642,4.4656,4.4668,4.451,4.4509,4.4509,0,0,4.4455,4.4461,4.4504,4.4512,4.4523,4.4515,4.4526,4.4529,4.4528,4.4572,4.4542,4.4567,4.4609,4.4617,4.4626,4.4719,4.4693,4.4726,4.4781,4.4814,4.4825,4.4835,4.4868,4.488,4.4733,4.4733,4.4733,0,4.4503,4.4548,4.4529,4.4566,4.4579,4.4544,4.4588,4.4595,4.4612,4.4622,4.4597,4.4649,4.4653,4.4709,4.4732,4.4741,4.4752,4.4725,4.4825,4.4834,4.4843,4.4874,4.4887,4.4737,4.4737,4.4736,4.4736,0,4.4606,4.4638,4.4672,4.4691,4.4707,4.4747,4.4734,4.4753,4.4738,4.4733,4.4778,4.4781,4.4803,4.4816,4.48,4.487,4.4856,4.4829,4.4785,4.4861,4.489,4.4902,4.4743,4.4741,4.474,4.4739,0,0,4.4729,4.4738,4.4751,4.4759,4.4769,4.4792,4.4831,4.4854,4.487,4.4883,4.4915,4.4952,4.4926,4.4937,4.4923,4.4952,4.5025,4.492,4.492,4.4939,4.5102,4.5123,4.5137,4.5009,4.5011,4.5013,4.5101,0,4.4816,4.4883,4.4868,4.4934,4.4963,4.4931,4.4964,4.4973,4.497,4.4994,4.4989,4.5016,4.4981,4.4987,4.5014,4.501,4.5057,4.5004,4.5037,4.5038,4.5036,4.5152,4.5174,4.5257,4.5113,4.5114,4.5116,0,4.4926,4.4945,4.5014,4.502,4.5031,4.5062,4.5082,4.5105,4.5115,4.511,4.5123,4.5103,4.5141,4.5097,4.5148,4.5112,4.5125,4.5126,4.5128,4.513,4.5082,4.5157,4.5283,4.5296,4.5133,4.5132,4.5131,0,4.5009,4.5051,4.5098,4.5106,4.5114,4.5136,4.5141,4.5148,4.5163,4.518,4.5189,4.5211,4.5222,4.5239,4.5225,4.5194,4.5279,4.5233,4.5275,4.5276,4.5294,4.5293,4.5424,4.5303,4.5303,4.5303,4.5302,0,4.5107,4.5151,4.5136,4.5165,4.5212,4.5195,4.5242,4.5242,4.525,4.5278,4.5251,4.5277,4.5258,4.5283,4.5272,4.5316,4.5321,4.5318,4.5315,4.5321,4.5321,4.5328,4.5322,4.5306,4.5305,4.5305,4.5304,0,4.5207,4.5199,4.5248,4.5252,4.5254,4.529,4.5293,4.5319,4.5314,4.535,4.5357,4.5349,4.5377,4.5365,4.5394,4.5387,4.5444,4.5433,4.5441,4.5438,4.5481,4.5477,4.5621,4.5639,4.5507,4.5508,4.5509,0,4.5271,4.5304,4.5312,4.5329,4.5336,4.5364,4.5379,4.5363,4.538,4.5395,4.542,4.5446,4.5465,4.5512,4.5508,4.553,4.5519,4.5568,4.5522,4.5527,4.552,4.5518,4.5521,4.5577,4.5579,4.558,4.5581,0,4.5384,4.5379,4.5402,4.5426,4.5445,4.5462,4.5476,4.5492,4.5476,4.5497,4.5526,4.5541,4.5572,4.5598,4.5618,4.5621,4.5599,4.5596,4.5607,4.5613,4.5616,4.5615,4.5466,4.5592,4.5591,4.559,4.559,4.5589,4.5468,4.5496,4.5506,4.5534,4.5543,4.5558,4.5583,4.5582,4.5606,4.5631,4.5619,4.5653,4.5662,4.5687,4.5694,4.5719,4.57,4.5716,4.572,4.5724,4.5729,4.5613,4.5723,4.5722,4.5722,4.5722,4.5722,0,4.558,4.5585,4.5611,4.5633,4.5655,4.5633,4.5648,4.5667,4.5698,4.5709,4.5729,4.5763,4.5788,4.5787,4.581,4.5831,4.5821,4.5838,4.5836,4.5837,4.5745,4.5734,4.5845,4.5845,4.5845,4.5845,4.5845,4.5845,4.564,4.5687,4.5683,4.5734,4.5739,4.5773,4.5783,4.5796,4.5805,4.5844,4.5865,4.5865,4.5871,4.5895,4.5917,4.5916,4.5925,4.5946,4.5941,4.5855,4.5843,4.5831,4.582,4.5948,4.5948,4.603,4.6031,4.6031]}]]